CNT2485 OPIS-OPSD

Flight info

Callsign CNT2485
Flight time 0h 38m
Altitude 31000
Route BOBAM DCT KAGLO J186 KAPMI DCT BUNGI DCT BIREB
Aircraft B738/M-SDE2E3FGHIRWXY/LB1

Departure

Time 2026-04-28 01:05
Airport Islamabad International Airport (OPIS)

Arrival

Time 2026-04-28 01:44
Airport Skardu International Airport (OPSD)
Time Latitude Longitude Altitude Speed Heading
2026-04-28 00:28 33.55444 72.83438 1787 ft 0 kts 10°
2026-04-28 00:54 33.55437 72.83436 1786 ft 2 kts 10°
2026-04-28 00:54 33.55422 72.83433 1785 ft 2 kts 10°
2026-04-28 00:54 33.55407 72.83430 1784 ft 2 kts 10°
2026-04-28 00:55 33.55392 72.83427 1783 ft 2 kts 10°
2026-04-28 00:55 33.55378 72.83424 1782 ft 2 kts
2026-04-28 00:55 33.55363 72.83417 1781 ft 2 kts 39°
2026-04-28 00:55 33.55353 72.83404 1780 ft 2 kts 59°
2026-04-28 00:56 33.55348 72.83387 1779 ft 2 kts 82°
2026-04-28 00:56 33.55347 72.83375 1779 ft 0 kts 97°
2026-04-28 00:56 33.55349 72.83366 1778 ft 0 kts 99°
2026-04-28 01:00 33.55345 72.83398 1780 ft 8 kts 98°
2026-04-28 01:00 33.55327 72.83516 1780 ft 20 kts 102°
2026-04-28 01:01 33.55258 72.83533 1776 ft 11 kts 182°
2026-04-28 01:01 33.55209 72.83524 1769 ft 0 kts 190°
2026-04-28 01:01 33.55192 72.83521 1766 ft 9 kts 191°
2026-04-28 01:01 33.55087 72.83499 1755 ft 18 kts 179°
2026-04-28 01:02 33.55030 72.83624 1751 ft 18 kts 98°
2026-04-28 01:02 33.55004 72.83786 1749 ft 22 kts 100°
2026-04-28 01:02 33.54973 72.83990 1753 ft 27 kts 101°
2026-04-28 01:02 33.54936 72.84227 1753 ft 27 kts 99°
2026-04-28 01:03 33.54906 72.84433 1759 ft 23 kts 100°
2026-04-28 01:03 33.54828 72.84539 1754 ft 11 kts 191°
2026-04-28 01:03 33.54736 72.84518 1748 ft 15 kts 191°
2026-04-28 01:03 33.54711 72.84476 1746 ft 4 kts 264°
2026-04-28 01:04 33.54711 72.84441 1746 ft 0 kts 277°
2026-04-28 01:04 33.54712 72.84434 1746 ft 5 kts 277°
2026-04-28 01:04 33.54762 72.84113 1737 ft 75 kts 281°
2026-04-28 01:04 33.54896 72.83245 1755 ft 136 kts 280°
2026-04-28 01:05 33.55111 72.81911 1847 ft 180 kts 281°
2026-04-28 01:05 33.55352 72.80502 2644 ft 172 kts 282°
2026-04-28 01:05 33.55589 72.79054 3155 ft 186 kts 283°
2026-04-28 01:05 33.55839 72.77488 3606 ft 197 kts 283°
2026-04-28 01:06 33.56104 72.75792 3922 ft 214 kts 283°
2026-04-28 01:06 33.56380 72.73985 4258 ft 231 kts 279°
2026-04-28 01:06 33.56227 72.72014 4610 ft 249 kts 249°
2026-04-28 01:06 33.55175 72.70311 5068 ft 261 kts 218°
2026-04-28 01:07 33.53583 72.69260 5544 ft 271 kts 199°
2026-04-28 01:07 33.51687 72.68948 5929 ft 282 kts 171°
2026-04-28 01:07 33.49918 72.69879 6651 ft 279 kts 139°
2026-04-28 01:07 33.49090 72.71038 7159 ft 278 kts 121°
2026-04-28 01:08 33.48326 72.73979 7979 ft 287 kts 98°
2026-04-28 01:08 33.48201 72.76382 8714 ft 289 kts 93°
2026-04-28 01:08 33.48152 72.78785 9425 ft 292 kts 93°
2026-04-28 01:08 33.48093 72.81213 10106 ft 296 kts 94°
2026-04-28 01:09 33.48004 72.83717 10596 ft 308 kts 95°
2026-04-28 01:09 33.47894 72.86314 10991 ft 323 kts 94°
2026-04-28 01:09 33.47770 72.89063 11412 ft 337 kts 95°
2026-04-28 01:09 33.47661 72.91901 12089 ft 341 kts 92°
2026-04-28 01:10 33.47857 72.94702 12791 ft 347 kts 78°
2026-04-28 01:10 33.48720 72.97440 13457 ft 353 kts 65°
2026-04-28 01:10 33.49858 73.00031 14197 ft 355 kts 62°
2026-04-28 01:10 33.51071 73.02618 14918 ft 359 kts 61°
2026-04-28 01:11 33.52303 73.05267 15650 ft 362 kts 62°
2026-04-28 01:11 33.53640 73.07797 16360 ft 366 kts 53°
2026-04-28 01:11 33.55394 73.10021 17009 ft 370 kts 39°
2026-04-28 01:11 33.57619 73.11579 17683 ft 372 kts 21°
2026-04-28 01:12 33.60119 73.12389 18270 ft 376 kts
2026-04-28 01:12 33.62724 73.12645 18896 ft 379 kts 360°
2026-04-28 01:12 33.65380 73.12605 19493 ft 383 kts 356°
2026-04-28 01:12 33.68072 73.12448 20088 ft 387 kts 355°
2026-04-28 01:13 33.70773 73.12268 20661 ft 391 kts 355°
2026-04-28 01:13 33.76256 73.11940 21823 ft 398 kts 355°
2026-04-28 01:13 33.79043 73.11796 22376 ft 402 kts 355°
2026-04-28 01:14 33.81846 73.11661 22924 ft 405 kts 355°
2026-04-28 01:14 33.84652 73.11530 23521 ft 407 kts 355°
2026-04-28 01:14 33.87528 73.11400 23985 ft 412 kts 355°
2026-04-28 01:14 33.90416 73.11271 24537 ft 415 kts 355°
2026-04-28 01:15 33.93298 73.11144 25113 ft 416 kts 355°
2026-04-28 01:15 33.96189 73.11017 25521 ft 421 kts 355°
2026-04-28 01:15 33.99125 73.10889 25975 ft 425 kts 355°
2026-04-28 01:15 34.02118 73.10758 26476 ft 427 kts 355°
2026-04-28 01:16 34.05105 73.10626 26876 ft 432 kts 355°
2026-04-28 01:16 34.08134 73.10490 27278 ft 436 kts 355°
2026-04-28 01:16 34.11147 73.10355 27729 ft 438 kts 355°
2026-04-28 01:16 34.14221 73.10216 28224 ft 439 kts 355°
2026-04-28 01:17 34.17270 73.10085 28654 ft 442 kts 355°
2026-04-28 01:17 34.20400 73.09950 29048 ft 445 kts 355°
2026-04-28 01:17 34.23472 73.09811 29434 ft 448 kts 355°
2026-04-28 01:17 34.26629 73.09671 29827 ft 451 kts 355°
2026-04-28 01:18 34.29766 73.09533 30222 ft 453 kts 355°
2026-04-28 01:18 34.32946 73.09392 30520 ft 458 kts 355°
2026-04-28 01:18 34.36111 73.09253 30876 ft 461 kts 354°
2026-04-28 01:18 34.39350 73.09106 30963 ft 465 kts 354°
2026-04-28 01:19 34.44720 73.08871 30989 ft 460 kts 355°
2026-04-28 01:19 34.52216 73.09252 31020 ft 467 kts
2026-04-28 01:20 34.55319 73.10480 31048 ft 472 kts 22°
2026-04-28 01:20 34.58197 73.12474 31044 ft 475 kts 34°
2026-04-28 01:20 34.63107 73.17818 31140 ft 475 kts 49°
2026-04-28 01:21 34.66897 73.24384 31233 ft 475 kts 58°
2026-04-28 01:21 34.70258 73.31351 31296 ft 476 kts 59°
2026-04-28 01:22 34.73568 73.38305 31308 ft 476 kts 60°
2026-04-28 01:22 34.76949 73.45279 31369 ft 477 kts 58°
2026-04-28 01:23 34.81231 73.51414 31422 ft 475 kts 39°
2026-04-28 01:23 34.86386 73.56363 31454 ft 476 kts 34°
2026-04-28 01:24 34.91733 73.61147 31500 ft 473 kts 34°
2026-04-28 01:24 34.97018 73.65934 31500 ft 474 kts 35°
2026-04-28 01:25 35.02285 73.70814 31494 ft 473 kts 36°
2026-04-28 01:25 35.07482 73.75693 31538 ft 471 kts 36°
2026-04-28 01:26 35.12699 73.80621 31541 ft 474 kts 36°
2026-04-28 01:26 35.17928 73.85579 31569 ft 472 kts 36°
2026-04-28 01:27 35.23118 73.90511 31569 ft 473 kts 36°
2026-04-28 01:27 35.28295 73.95441 31572 ft 474 kts 36°
2026-04-28 01:28 35.33517 74.00422 31572 ft 473 kts 36°
2026-04-28 01:28 35.38685 74.05444 31585 ft 473 kts 39°
2026-04-28 01:29 35.43037 74.11510 31578 ft 475 kts 56°
2026-04-28 01:29 35.44720 74.14922 31334 ft 471 kts 60°
2026-04-28 01:29 35.46262 74.18443 30860 ft 466 kts 62°
2026-04-28 01:30 35.47719 74.21963 30449 ft 460 kts 63°
2026-04-28 01:30 35.49138 74.25461 29961 ft 456 kts 63°
2026-04-28 01:30 35.50549 74.28939 29396 ft 453 kts 63°
2026-04-28 01:30 35.51955 74.32394 28814 ft 451 kts 63°
2026-04-28 01:31 35.53348 74.35796 28224 ft 449 kts 63°
2026-04-28 01:31 35.54761 74.39222 27625 ft 448 kts 63°
2026-04-28 01:31 35.56164 74.42611 27037 ft 445 kts 63°
2026-04-28 01:31 35.57560 74.45982 26446 ft 443 kts 63°
2026-04-28 01:32 35.58950 74.49334 25833 ft 441 kts 63°
2026-04-28 01:32 35.60131 74.52180 25335 ft 439 kts 63°
2026-04-28 01:32 35.61166 74.54684 24870 ft 434 kts 64°
2026-04-28 01:32 35.62320 74.58070 24277 ft 425 kts 72°
2026-04-28 01:33 35.62970 74.61562 23672 ft 414 kts 84°
2026-04-28 01:33 35.63057 74.65019 23056 ft 405 kts 93°
2026-04-28 01:33 35.62896 74.68436 22487 ft 396 kts 96°
2026-04-28 01:33 35.62660 74.71774 21885 ft 388 kts 97°
2026-04-28 01:34 35.62410 74.75056 21330 ft 385 kts 97°
2026-04-28 01:34 35.62167 74.78293 20849 ft 382 kts 96°
2026-04-28 01:34 35.61928 74.81554 20345 ft 380 kts 96°
2026-04-28 01:34 35.61698 74.84763 19836 ft 379 kts 96°
2026-04-28 01:35 35.61472 74.87977 19340 ft 377 kts 96°
2026-04-28 01:35 35.61250 74.91180 18891 ft 375 kts 96°
2026-04-28 01:35 35.61032 74.94366 18412 ft 373 kts 96°
2026-04-28 01:35 35.60817 74.97533 17820 ft 369 kts 96°
2026-04-28 01:36 35.60607 75.00608 17247 ft 363 kts 96°
2026-04-28 01:36 35.60397 75.03667 16694 ft 356 kts 95°
2026-04-28 01:36 35.60190 75.06660 16180 ft 348 kts 95°
2026-04-28 01:36 35.59989 75.09584 15681 ft 341 kts 95°
2026-04-28 01:37 35.59788 75.12489 15194 ft 342 kts 95°
2026-04-28 01:37 35.59587 75.15409 14687 ft 344 kts 95°
2026-04-28 01:37 35.59382 75.18328 14182 ft 343 kts 95°
2026-04-28 01:37 35.59179 75.21211 13825 ft 332 kts 95°
2026-04-28 01:38 35.58984 75.23958 13587 ft 317 kts 95°
2026-04-28 01:38 35.58794 75.26617 13342 ft 304 kts 95°
2026-04-28 01:38 35.58615 75.29127 13099 ft 292 kts 94°
2026-04-28 01:38 35.58341 75.31565 12847 ft 282 kts 102°
2026-04-28 01:39 35.57634 75.33750 12597 ft 274 kts 125°
2026-04-28 01:39 35.56268 75.35314 12309 ft 269 kts 147°
2026-04-28 01:39 35.54507 75.36163 12420 ft 278 kts 171°
2026-04-28 01:39 35.53192 75.36219 12289 ft 289 kts 185°
2026-04-28 01:40 35.50508 75.35716 12192 ft 295 kts 179°
2026-04-28 01:40 35.48591 75.36148 12438 ft 267 kts 152°
2026-04-28 01:40 35.47265 75.37677 12290 ft 270 kts 116°
2026-04-28 01:40 35.46766 75.39907 11613 ft 276 kts 98°
2026-04-28 01:41 35.46368 75.42158 11367 ft 264 kts 107°
2026-04-28 01:41 35.45594 75.44151 11011 ft 256 kts 124°
2026-04-28 01:41 35.44376 75.45697 10541 ft 253 kts 141°
2026-04-28 01:41 35.42887 75.46870 9888 ft 253 kts 148°
2026-04-28 01:42 35.41392 75.47905 9331 ft 240 kts 149°
2026-04-28 01:42 35.40012 75.48920 8734 ft 232 kts 145°
2026-04-28 01:42 35.38730 75.50005 8293 ft 218 kts 142°
2026-04-28 01:42 35.37505 75.50993 7964 ft 202 kts 147°
2026-04-28 01:43 35.36357 75.51859 7718 ft 182 kts 145°
2026-04-28 01:43 35.35362 75.52663 7574 ft 160 kts 145°
2026-04-28 01:43 35.34497 75.53360 7526 ft 130 kts 149°
2026-04-28 01:43 35.33918 75.53816 7543 ft 67 kts 148°
2026-04-28 01:44 35.33667 75.54013 7552 ft 28 kts 146°
2026-04-28 01:44 35.33514 75.54134 7556 ft 23 kts 146°
2026-04-28 01:44 35.33385 75.54237 7557 ft 20 kts 147°
2026-04-28 01:44 35.33271 75.54326 7557 ft 14 kts 154°
2026-04-28 01:45 35.33207 75.54289 7557 ft 10 kts 232°
2026-04-28 01:45 35.33187 75.54253 7557 ft 0 kts 237°
2026-04-28 01:46 35.33187 75.54252 7557 ft 1 kts 237°
2026-04-28 01:46 35.33160 75.54202 7558 ft 13 kts 236°
2026-04-28 01:46 35.33080 75.54057 7559 ft 24 kts 235°
2026-04-28 01:46 35.33039 75.54055 7559 ft 1 kts 147°
2026-04-28 01:47 35.33031 75.54061 7559 ft 1 kts 147°
2026-04-28 01:47 35.33026 75.54066 7560 ft 0 kts 146°